Home > Weather > Pickering > Past weeks

Flag for Canada Past Weather in Pickering, Ontario, Canada — Yesterday and Last 2 Weeks

Now
82 °F

More clouds than sun.


Feels Like: 85 °F
Forecast: 62 / 80 °F
Wind: 7 mph from South

Location: Toronto Buttonville

Current Time: May 27, 2016 at 2:20:48 PM

Latest Report: May 27, 2016 at 1:00 PM


Visibility: 9 mi

Pressure: 29.96 "Hg

Humidity: 62%

Dew Point: 68 °F

Location of PickeringLocation

Past Weather in Pickering — Graph

°F

Pickering Temperature Yesterday

Maximum temperature yesterday: 75 °F (at 5:00 PM)
Minimum temperature yesterday: 61 °F (at 5:00 AM)
Average temperature yesterday: 66 °F

High & Low Weather Summary for the Past Weeks

 TemperatureHumidityPressure
High84 °F (May 24, 3:00 PM)100% (May 16, 11:00 PM)30.29 "Hg (May 16, 11:00 PM)
Low34 °F (May 16, 4:00 AM)23% (May 20, 4:00 PM)29.46 "Hg (May 14, 12:47 PM)
Average59 °F57%29.99 "Hg
* Reported May 12 1:00 PM — May 27 1:00 PM, Pickering, Weather by CustomWeather, © 2016

Note: Actual official high and low records may vary slightly from our data, if they occured in-between our weather recording intervals... More about our weather records

Advertising

Pickering Weather History for the Previous 24 Hours

Scroll right to see more
 ConditionsComfort  
Time TempWeatherWind HumidityBarometerVisibility
1:00 PM
Fri, May 27
82 °FMore clouds than sun.7 mph62%29.96 "Hg9 mi
12:00 PM81 °FPartly sunny.6 mph62%29.96 "Hg10 mi
11:00 AM79 °FPartly sunny.No wind65%29.96 "Hg11 mi
10:00 AM77 °FScattered clouds.5 mph69%29.95 "Hg10 mi
9:00 AM72 °FPassing clouds.3 mph78%29.96 "Hg8 mi
8:00 AM68 °FPartly sunny.2 mph83%29.97 "Hg7 mi
7:47 AM68 °FPartly sunny.3 mph83%29.96 "Hg8 mi
7:00 AM66 °FFog.2 mph88%29.96 "Hg5 mi
6:00 AM61 °FFog.No wind94%29.94 "Hg3 mi
5:00 AM63 °FPassing clouds.No wind88%29.93 "Hg8 mi
4:00 AM61 °FPassing clouds.2 mph94%29.94 "Hg8 mi
3:00 AM61 °FPassing clouds.No wind94%29.95 "Hg15 mi
2:00 AM61 °FPassing clouds.3 mph94%29.96 "Hg8 mi
1:00 AM63 °FPassing clouds.No wind88%29.96 "Hg10 mi
12:00 AM64 °FPassing clouds.2 mph83%29.96 "Hg10 mi
11:00 PM
Thu, May 26
64 °FPassing clouds.2 mph83%29.95 "Hg10 mi
10:00 PM64 °FPassing clouds.3 mph83%29.95 "Hg10 mi
9:00 PM66 °FScattered clouds.5 mph78%29.95 "Hg10 mi
8:00 PM68 °FPartly sunny.8 mph73%29.94 "Hg12 mi
7:00 PM72 °FScattered clouds.8 mph65%29.93 "Hg12 mi
6:00 PM75 °FPartly sunny.6 mph69%29.93 "Hg12 mi
5:00 PM75 °FScattered clouds.7 mph69%29.95 "Hg12 mi
4:00 PM70 °FPartly sunny.3 mph78%29.98 "Hg11 mi
3:00 PM66 °FSprinkles. Partly sunny.5 mph83%30.00 "Hg9 mi
2:00 PM64 °FSprinkles. Partly sunny.7 mph83%30.01 "Hg13 mi
Weather by CustomWeather, © 2016

See weather overviewHow to use our weather pages